FW0672 Weather Reports


time (UTC)temp
C
wind
direction
speed
KPH
gust
KPH
rain 1hr
cm
rain 24hr
cm
rain mn
cm
humidity
%
barometer
mb
20260504002523 13 270 1.6 3.2 0.00 0.00 0.00 43 1018.5
20260504000531 14 250 3.2 4.8 0.00 0.00 0.00 41 1018.3
20260503235515 15 238 4.8 6.4 0.00 0.00 0.00 40 1018.3
20260503234516 15 255 8.0 9.7 0.00 0.00 0.00 39 1018.2
20260503233518 16 244 9.7 12.9 0.00 0.00 0.00 38 1018.2
20260503232519 16 253 9.7 14.5 0.00 0.00 0.00 37 1018.0
20260503231521 17 253 8.0 11.3 0.00 0.00 0.00 36 1018.0
20260503230522 17 264 11.3 20.9 0.00 0.00 0.00 36 1018.0
20260503225524 17 256 11.3 16.1 0.00 0.00 0.00 36 1018.0
20260503224526 18 230 9.7 12.9 0.00 0.00 0.00 35 1018.0
20260503223527 18 253 11.3 16.1 0.00 0.00 0.00 35 1018.0
20260503222529 18 267 9.7 14.5 0.00 0.00 0.00 34 1018.1
20260503221625 18 281 9.7 16.1 0.00 0.00 0.00 35 1018.2
20260503220515 18 278 6.4 11.3 0.00 0.00 0.00 36 1018.2
20260503215516 18 265 11.3 17.7 0.00 0.00 0.00 35 1018.3
20260503213520 18 259 9.7 12.9 0.00 0.00 0.00 35 1018.2
20260503212522 18 265 11.3 12.9 0.00 0.00 0.00 35 1018.3
20260503211524 18 264 11.3 16.1 0.00 0.00 0.00 35 1018.3
20260503210525 18 261 11.3 19.3 0.00 0.00 0.00 34 1018.3
20260503205527 18 240 9.7 16.1 0.00 0.00 0.00 35 1018.2
20260503204528 18 285 9.7 14.5 0.00 0.00 0.00 34 1018.3
20260503203529 18 276 14.5 25.7 0.00 0.00 0.00 35 1018.3
20260503202531 18 278 9.7 16.1 0.00 0.00 0.00 35 1018.5
20260503201532 18 237 8.0 11.3 0.00 0.00 0.00 36 1018.5
20260503200517 18 259 11.3 14.5 0.00 0.00 0.00 35 1018.6
20260503195518 18 257 14.5 25.7 0.00 0.00 0.00 35 1018.8
20260503194520 18 292 9.7 14.5 0.00 0.00 0.00 36 1019.0
20260503193516 18 260 14.5 20.9 0.00 0.00 0.00 36 1019.0
20260503192524 17 357 8.0 11.3 0.00 0.00 0.00 35 1019.3
20260503190527 17 228 9.7 14.5 0.00 0.00 0.00 36 1019.5
20260503185529 17 281 11.3 19.3 0.00 0.00 0.00 37 1019.7
20260503184531 17 333 8.0 11.3 0.00 0.00 0.00 38 1019.8
20260503183532 17 235 9.7 14.5 0.00 0.00 0.00 38 1019.9
20260503182516 17 268 11.3 16.1 0.00 0.00 0.00 36 1020.0
20260503181518 17 232 12.9 19.3 0.00 0.00 0.00 37 1020.0
20260503180519 17 245 9.7 24.1 0.00 0.00 0.00 37 1020.1
20260503175521 16 236 8.0 16.1 0.00 0.00 0.00 38 1020.3
20260503174522 16 257 12.9 19.3 0.00 0.00 0.00 38 1020.3
20260503173524 16 245 11.3 19.3 0.00 0.00 0.00 40 1020.4
20260503172520 16 265 12.9 17.7 0.00 0.00 0.00 40 1020.5
20260503171615 16 266 11.3 22.5 0.00 0.00 0.00 40 1020.5
20260503170528 16 281 17.7 29.0 0.00 0.00 0.00 40 1020.6
20260503150517 12 276 11.3 17.7 0.00 0.00 0.00 50 1021.7
20260503130524 9 263 8.0 12.9 0.00 0.00 0.00 62 1021.9
20260503081519 6 238 6.4 11.3 0.00 0.00 0.00 73 1019.6
20260503080515 7 265 8.0 11.3 0.00 0.00 0.00 72 1019.5
20260503072515 6 255 6.4 9.7 0.00 0.00 0.00 75 1019.2
20260503071517 5 263 8.0 11.3 0.00 0.00 0.00 76 1019.1
20260503070518 5 263 6.4 11.3 0.00 0.00 0.00 77 1019.0
20260503054531 6 275 8.0 14.5 0.00 0.00 0.00 73 1019.0
20260503053533 6 260 8.0 12.9 0.00 0.00 0.00 72 1019.0
20260503052516 6 270 6.4 11.3 0.00 0.00 0.00 71 1019.0
20260503051516 6 271 6.4 12.9 0.00 0.00 0.00 71 1019.0
20260503050518 7 264 11.3 17.7 0.00 0.00 0.00 71 1019.0
20260503045519 6 296 12.9 16.1 0.00 0.00 0.00 71 1019.0
20260503044521 6 273 8.0 17.7 0.00 0.00 0.00 70 1019.0
20260503043523 6 290 6.4 9.7 0.00 0.00 0.00 70 1019.0
20260503042525 6 265 6.4 9.7 0.00 0.00 0.00 70 1019.0
20260503041526 6 307 4.8 11.3 0.00 0.00 0.00 69 1019.0
20260503040528 6 269 6.4 9.7 0.00 0.00 0.00 69 1019.0
20260503035523 6 271 9.7 14.5 0.00 0.00 0.00 70 1019.0
20260503034519 6 314 4.8 9.7 0.00 0.00 0.00 70 1019.0
20260503033532 6 282 4.8 6.4 0.00 0.00 0.00 70 1019.0
20260503032516 6 292 3.2 4.8 0.00 0.00 0.00 69 1019.0
20260503031518 7 0.0 0.0 0.00 0.00 0.00 68 1019.0
20260503030520 7 60 4.8 6.4 0.00 0.00 0.00 67 1019.0
20260503025522 7 338 4.8 8.0 0.00 0.00 0.00 66 1019.0
20260503024524 8 339 6.4 9.7 0.00 0.00 0.00 66 1019.0
20260503023526 8 337 6.4 8.0 0.00 0.00 0.00 65 1019.2
20260503021610 8 298 6.4 14.5 0.00 0.00 0.00 62 1019.0
20260503020612 9 286 8.0 14.5 0.00 0.00 0.00 63 1019.0
20260503015616 8 282 6.4 9.7 0.00 0.00 0.00 63 1018.9
20260503014518 9 309 4.8 6.4 0.00 0.00 0.00 62 1018.5
20260503013519 9 310 4.8 6.4 0.00 0.00 0.00 60 1018.3
20260503012521 10 327 6.4 8.0 0.00 0.00 0.00 60 1018.2
20260503011516 10 303 4.8 8.0 0.00 0.00 0.00 59 1018.1
20260503010524 10 287 8.0 14.5 0.00 0.00 0.00 58 1018.0
20260503004526 10 294 4.8 9.7 0.00 0.00 0.00 57 1017.6
20260503003528 11 275 8.0 12.9 0.00 0.00 0.00 56 1017.3